Location: Domont
(49.0278°N, 2.3264°E)
Time: 01:05:54
(UTC+00:00)

Orbus 7S? - Pass Details

Date: 29 May 2022
Orbit: 340 x 6374 km, 56.9° (Epoch: 04 July)

Event Time Altitude Azimuth Distance (km) Brightness Sun altitude
Exits shadow 00:35:18 14° 227° (SW) 4,240 7.3 -18.6°
Maximum altitude 00:48:10 87° 141° (SE) 3,652 7.3 -18.1°
Drops below altitude 10° 01:24:04 10° 59° (ENE) 9,864 10.4 -16.2°
Sets 01:32:54 0° 61° (ENE) 11,059 10.8 -15.6°
